Location: Crescent
(42.8242°N, 73.7329°W)
Time: 02:59:50
(UTC+00:00)

Tiros 1 - Pass Details

Date: 17 February 2026
Orbit: 618 x 649 km, 48.4° (Epoch: 13 March)

Event Time Altitude Azimuth Distance (km) Brightness Sun altitude
Rises 14:31:31 0° 250° (WSW) 2,905 10.3 24.6°
Reaches altitude 10° 14:33:51 10° 252° (WSW) 1,995 9.5 24.8°
Maximum altitude 14:38:25 72° 337° (NNW) 655 7.4 25.4°
Drops below altitude 10° 14:42:59 10° 63° (ENE) 1,986 9.9 26.0°
Sets 14:45:18 0° 65° (ENE) 2,891 10.7 26.2°
